Location: Newark
(59.4564°N, 26.6917°E)
Time: 08:06:41
(UTC+00:00)

SR - Pass Details

Date: 29 November 2019
Orbit: 573 x 882 km, 66.7° (Epoch: 13 December)

Event Time Altitude Azimuth Distance (km) Brightness Sun altitude
Rises 17:31:29 0° 308° (NW) 3,473 ? -29.8°
Reaches altitude 10° 17:33:58 10° 309° (NW) 2,546 ? -30.1°
Enters shadow 17:39:04 66° 322° (NW) 964 ? -30.7°
Maximum altitude 17:39:58 84° 37° (NE) 894 - -30.8°
Drops below altitude 10° 17:45:51 10° 128° (SE) 2,502 - -31.6°
Sets 17:48:17 0° 129° (SE) 3,409 - -31.9°
